Aérodrome :
LOGIN :

S'inscrire | Disclaimer

   EN    FR    IT 

 










Légende :    VFR   VFR Marginal   IFR   IFR Intensif   IFR Très Intensif
Visi : 
Plafond : 
>= 8 km
>= 3000ft
5 à 8 km
1000 à 3000 ft
1500m à 5 km
500 à 1000 ft
800 à 1500m
200 à 500 ft
< 800m
< 200 ft
Symboles :   Orages  Brouillard  Fortes neiges  Fortes précipitations  Vent > 20 kt
SIGMETs :   Divers  Orages  Givrage  Turbulence  Onde Orograph.  Cendres Volcan.






- Altitude de l'aérodrome : 1674 ft
- Code IATA : BRN


LSZB - Bern Belp

DERNIER METAR :
  • 281050Z VRB02KT CAVOK 13/03 Q1016 NOSIG

METARs EXPIRÉS :
  • 281020Z AUTO VRB03KT CAVOK 12/03 Q1016
  • 280950Z VRB01KT CAVOK 11/03 Q1016 NOSIG
  • 280920Z 14004KT 090V160 CAVOK 09/02 Q1017 NOSIG
  • 280850Z 14004KT CAVOK 08/02 Q1017 NOSIG
  • 280820Z VRB03KT CAVOK 07/02 Q1017 NOSIG

TAF TAF LSZB
Valide du 28 à 09h jusqu'au 28 à 18h UTC


280825Z 2809/2818 VRB03KT 8000 NSC
BECMG 2809/2810 CAVOK
BECMG 2814/2817 9999 SCT055
ATIS : +41 22 417 40 76



MET'MAP, la Météo Aéronautique d'un coup d'oeil ! - Copyright ORBIFLY Décembre 2007 - Disclaimer

ORBIFLY MET'MAP TEAM :

Programmation & Développement : Alexandra Zaïnal
Sur une idée originale de : Baudouin d'Aumeries
Assistance à la programmation : Marc-Olivier Méhu
Soutien technique & logistique : Manuel Goepfert

Contact : metmap@orbifly.com




SOURCES & CREDITS :

   NOAA